Regional Weather Roundup
Issued by NWS

Home | Current Version | Previous Version | Graphics & Text | Print | Product List | Glossary Off
Versions: 1 2 3 4 5 6 7 8 9 10 11 12 13 14 15 16 17 18 19 20 21 22 23 24 25 26 27 28 29 30 31 32 33 34 35 36 37 38 39 40 41 42 43 44 45 46 47 48 49 50

000
ASUS43 KFSD 202202
RWRSD

WEATHER ROUNDUP FOR SOUTH DAKOTA
NATIONAL WEATHER SERVICE SIOUX FALLS SD
500 PM CDT SUN MAY 20 2018

NOTE: "FAIR" INDICATES FEW OR NO CLOUDS BELOW 12,000 FEET WITH NO
SIGNIFICANT WEATHER AND/OR OBSTRUCTIONS TO VISIBILITY.


SDZ001>005-009-010-012>017-202300-
NORTHWEST AND NORTH CENTRAL SOUTH DAKOTA

CITY           SKY/WX    TMP DP  RH WIND       PRES   REMARKS
BUFFALO          N/A     65  33  30 SE22G31   30.05F
FAITH            N/A     61  35  37 E9        30.15F
MOBRIDGE       PTSUNNY   69  36  29 E13G20    30.13F
$$

SDZ012>016-024>037-041>051-057-063-072>074-202300-
SOUTHWEST AND SOUTH CENTRAL SOUTH DAKOTA

CITY           SKY/WX    TMP DP  RH WIND       PRES   REMARKS
RAPID CTY ARPT CLOUDY    59  38  45 S8        30.14F
PIERRE         MOSUNNY   68  36  30 E12       30.12F
CUSTER         CLOUDY    52  32  46 S7        30.16F
ELLSWORTH AFB  CLOUDY    59  39  48 SE10      30.13F
PHILIP         MOSUNNY   66  40  38 E7        30.13F
PINE RIDGE     PTSUNNY   61  37  41 CALM      30.14F
SPEARFISH      FAIR      59  39  47 E15       30.12F
WINNER         CLOUDY    62  40  44 E8        30.14F
$$

SDZ004>011-016>023-039-040-202300-
NORTHEAST SOUTH DAKOTA

CITY           SKY/WX    TMP DP  RH WIND       PRES   REMARKS
ABERDEEN       MOSUNNY   72  27  18 NE13G18   30.14F
WATERTOWN      CLOUDY    68  29  23 NE12G24   30.13F
BROOKINGS      CLOUDY    66  32  28 E7        30.13F
SISSETON         N/A     73  27  18 E10       30.13F
$$

SDZ017-020-022-023-036>040-048>070-202300-
SOUTHEAST SOUTH DAKOTA

CITY           SKY/WX    TMP DP  RH WIND       PRES   REMARKS
SIOUX FALLS    CLOUDY    58  48  69 E7        30.12F
HURON          CLOUDY    62  35  36 E6        30.13F
CHAMBERLAIN    CLOUDY    64  32  29 E8        30.14F
MITCHELL       CLOUDY    61  39  44 E5        30.14F
YANKTON        CLOUDY    56  47  71 NE3       30.13F
$$

ABBREVIATIONS USED IN REMARKS
   TC - TEMPERATURE IN CELSIUS
  WCI - WIND CHILL INDEX
   HX - HEAT INDEX
  VSB - VISIBILITY




USA.gov is the U.S. government's official web portal to all federal, state and local government web resources and services.